Find Starlink 11468

NORAD ID: 62221 Int'l Des: 2024-231 Owner: SPXS Country: US Constellation: starlink operational
LEOCIRCULAR

Live-Position

3D-Globus wird geladen...

Über Starlink 11468

Beschreibung wird geladen...

Nächste Überflüge

Passes for default location (London). Set your location on the main map for personalized predictions.

Höhenverlauf

Loading altitude history...

Zweizeiliger Elementsatz

1 62221U 24231D 26126.41327821 .00159651 00000-0 12919-2 0 9991
2 62221 53.1572 177.0019 0001618 106.3878 253.7318 15.69812766 82473
Epoch: 6. Mai 2026 • Age: 26 hours

Aktueller Status

Höhe 359.3 km
Geschwindigkeit 7.69 km/s
Subsatellitenpunkt 2.92°N, 129.9°E
Startdatum 5. Dez. 2024
Alter 1.4 years
Typ internet

Technische Details

Klassifizierung Payload
Masse 960.00 kg
Trockenmasse 910.00 kg
Gesamtmasse 960.00 kg
Länge 0.30 m
Durchmesser 4.10 m
Spannweite 29.00 m
Form Box + pan
Hersteller SPXS
Bus-Typ Starlink V2MD
Phasenstatus In Orbit
Besitzer/Staat SPXS/US

Most Searched